SCP
-0 -0 -0 -0 -0 -0 -0 -0 -0 -0 -0 -0 -0 -0 -0 -0 -0 -0 -0 -0 -0 -0 -0 -0 -0 0 -0 0 0 0 0 0 0 0 0 0 0 0 0 0 0 0 0 0 0 0 0
-0 -0 -0 -0 -0 -0 -0 -0 -0 -0 -0 -0 -0 -0 -0 -0 -0 -0 -0 -0 -0 -0 -0 -0 0 0 -0 0 0 -0 0 0 0 0 0 0 0 0 0 0 0 0 0 0 0 0 0
-0 -0 -0 -0 -0 -0 -0 -0 -0 -0 -0 -0 -0 -0 -0 -0 -0 -0 -0 -0 -0 -0 -0 -0 0 -0 0 0 0 0 0 0 0 0 0 0 0 0 0 0 0 0 0 0 0 0 0
-0 -0 -0 -0 -0 -0 -0 -0 -0 -0 -0 -0 -0 -0 -0 -0 -0 -0 -0 -0 -0 -0 -0 0 -0 -0 0 0 0 0 0 0 0 0 0 0 0 0 0 0 0 0 0 0 0 0 0
-0 -0 -0 -0 -0 -0 -0 -0 -0 -0 -0 -0 -0 -0 -0 -0 -0 -0 -0 -0 -0 0 0 0 0 0 0 0 0 0 0 0 0 0 0 0 0 0 0 0 0 0 0 0 0 0 0
-0 -0 -0 -0 -0 -0 -0 -0 -0 -0 -0 -0 -0 -0 -0 -0 -0 -0 -0 -0 0 0 0 0 0 0 0 0 0 0 0 0 0 0 0 0 0 0 0 0 0 0 0 0 0 0 0
-0 -0 -0 -0 -0 -0 -0 -0 -0 -0 -0 -0 -0 -0 -0 -0 -0 -0 0 0 0 0 0 0 0 0 0 0 0 0 0 0 0 0 0 0 0 0 0 0 0 0 0 0 0 0 0
0 -0 -0 -0 -0 -0 -0 -0 -0 -0 -0 -0 -0 -0 -0 -0 -0 -0 0 0 0 0 0 -0 0 0 0 0 0 0 0 0 0 0 0 0 0 0 0 0 0 0 0 0 0 0 0
0 0 0 0 0 0 -0 -0 -0 -0 -0 -0 -0 -0 -0 -0 -0 0 0 0 0 0 0 0 0 -0 0 0 0 0 0 0 0 0 0 0 0 0 0 0 0 0 0 -0 0 0 -0
0 0 0 0 0 0 0 0 -0 -0 -0 -0 -0 -0 -0 -0 0 0 0 0 0 -0 0 0 0 0 0 0 0 0 0 0 0 0 0 0 0 0 0 0 0 0 0 0 0 0 0
0 0 0 0 0 0 0 0 0 -0 -0 -0 -0 -0 -0 -0 0 0 0 0 0 -0 0 0 0 0 0 0 0 0 0 0 0 0 0 0 0 0 0 0 0 0 0 0 0 0 -0
0 0 0 0 0 0 0 0 0 0 0 -0 -0 -0 -0 0 0 0 0 0 0 0 0 0 0 0 0 0 0 0 0 0 0 0 0 0 0 0 0 0 0 0 0 0 0 0 0
0 0 0 0 0 0 0 0 0 0 0 0 -0 -0 0 0 0 0 0 0 0 0 0 0 0 0 0 0 0 0 0 0 0 0 0 0 0 0 0 0 0 0 0 0 0 0 0
0 0 0 0 0 0 0 0 0 -0 -0 0 0 0 0 0 0 0 0 0 0 0 0 0 0 0 0 0 0 0 0 0 0 0 0 0 0 0 0 0 0 0 0 0 0 0 0
0 0 0 0 0 0 0 0 0 -0 -0 -0 0 0 0 0 0 0 0 0 0 0 0 0 0 0 0 0 0 0 0 0 0 0 0 0 0 0 0 0 0 0 0 0 0 0 0
0 0 0 0 0 0 0 0 0 -0 -0 -0 0 0 0 0 0 0 0 0 0 0 0 0 0 0 0 0 0 0 0 0 0 0 0 0 0 0 0 0 0 0 0 0 0 0 0
0 0 0 0 0 0 0 0 0 0 -0 0 0 0 0 0 0 0 0 0 0 0 0 0 0 0 0 0 0 0 0 0 0 0 0 0 0 0 0 0 0 0 0 0 0 0 0
0 0 0 0 -0 0 0 0 -0 -0 -0 0 0 0 0 0 0 0 0 0 0 0 0 0 0 0 0 0 0 0 0 0 0 0 0 0 0 0 0 0 0 0 0 0 0 0 0
0 0 0 0 0 0 0 0 0 -0 0 0 0 0 0 0 0 0 0 0 0 0 0 0 0 0 0 0 0 0 0 0 0 0 0 0 0 0 0 0 0 0 0 0 0 0 0
0 0 0 0 0 0 0 -0 0 -0 0 0 0 0 0 0 0 0 0 0 0 0 0 0 0 0 0 0 0 0 0 0 0 0 0 0 0 0 0 0 0 0 0 0 0 0 0
0 0 0 0 0 0 0 0 0 -0 0 0 0 0 0 0 0 0 0 0 0 0 0 0 0 0 0 0 0 0 0 0 0 0 0 0 0 0 0 0 0 0 0 0 0 0 0
0 0 0 0 0 0 0 0 0 0 0 0 0 0 0 0 0 0 0 0 0 0 0 0 0 0 0 0 0 0 0 0 0 0 0 0 0 0 0 0 0 0 0 0 0 0 0
0 0 0 0 0 0 0 0 0 0 0 0 0 0 0 0 0 0 0 0 0 0 0 0 0 0 0 0 0 0 0 0 0 0 0 0 0 0 0 0 0 0 0 0 0 0 0
0 0 0 0 0 0 0 0 0 0 0 0 0 0 0 0 0 0 0 0 0 0 0 0 0 0 0 0 0 0 0 0 0 0 0 0 0 0 0 0 0 0 0 0 0 0 0
0 0 0 0 0 0 0 0 0 0 0 0 0 0 0 0 0 0 0 0 0 0 0 0 0 0 0 0 0 0 0 0 0 0 0 0 0 0 0 0 0 0 0 0 0 0 0
0 0 0 0 0 0 0 0 0 0 0 0 0 0 0 0 0 0 0 0 0 0 0 0 0 0 0 0 0 0 0 0 0 0 0 0 0 0 0 0 0 0 0 0 0 0 0
-0 -0 0 0 0 0 0 0 0 0 0 0 0 0 0 0 0 0 0 0 0 0 0 0 0 0 0 0 0 0 0 0 0 0 0 0 0 0 0 0 0 0 0 0 0 0 0
-0 -0 -0 0 0 0 0 0 0 0 0 0 0 0 0 0 0 0 0 0 0 0 0 0 0 0 0 0 0 0 0 0 0 0 0 0 0 0 0 0 0 0 0 0 0 0 0
-0 -0 -0 0 0 0 0 0 0 0 0 0 0 0 0 0 0 0 0 0 0 0 0 0 0 0 0 0 0 0 0 0 0 0 0 0 0 0 0 0 0 0 0 0 0 0 0
Wind_Speed_500mb
22 21 21 21 21 20 19 19 20 20 20 20 21 22 23 23 23 23 23 24 23 22 21 20 19 19 20 11 5 3 16 18 19 18 15 14 11 2 3 5 6 7 6 8 13 14 15
22 22 23 24 24 24 22 21 23 22 22 23 23 24 24 25 24 24 24 24 24 22 21 20 19 19 17 9 5 5 14 17 24 19 3 8 6 8 2 6 6 16 22 27 12 6 11
23 23 23 24 24 25 23 25 26 25 25 25 26 26 26 27 26 25 25 26 24 23 21 19 19 19 20 16 1 10 17 22 21 15 6 7 12 7 10 8 12 14 14 10 3 7 10
23 24 24 25 25 26 25 26 27 28 28 29 29 30 30 29 28 26 25 25 24 23 21 18 17 17 13 7 10 11 21 24 20 12 5 9 6 7 5 14 2 5 3 11 8 1 3
25 25 25 26 27 28 28 29 29 30 31 31 31 31 31 32 30 25 25 24 23 22 19 16 15 11 12 7 14 20 20 17 12 11 6 8 14 3 4 7 4 10 7 13 8 6 4
26 27 27 28 28 29 30 31 32 33 33 33 33 32 32 33 30 25 22 21 17 15 16 15 19 9 14 5 8 18 27 23 9 8 6 4 2 1 3 7 7 10 7 10 15 1 5
27 27 28 29 30 30 31 32 34 34 35 35 35 34 32 32 29 25 17 14 11 9 17 15 6 7 10 10 6 12 24 32 14 4 5 4 1 5 7 8 10 10 8 13 10 9 7
29 30 30 31 32 33 34 35 36 35 36 36 35 34 31 31 27 20 7 3 5 5 15 26 43 43 33 21 4 13 20 20 17 12 8 5 11 9 6 7 8 2 3 8 11 11 3
30 31 33 33 34 35 36 38 38 38 37 37 36 34 30 28 24 5 3 6 9 13 7 14 30 32 39 26 15 17 33 21 10 14 15 10 3 14 4 5 5 3 12 16 5 10 5
32 33 34 36 37 38 39 40 41 40 38 37 37 34 29 22 14 7 9 3 13 3 6 7 11 12 27 21 12 33 35 20 9 17 14 11 3 5 4 6 3 6 2 16 14 9 8
34 35 35 37 39 41 42 43 43 41 40 37 37 35 27 19 16 6 12 5 3 3 7 8 7 6 23 29 16 22 44 18 20 16 11 5 8 9 7 2 2 4 7 7 4 3 4
37 38 39 39 40 42 45 45 45 43 40 40 36 35 27 19 13 11 13 3 8 3 11 2 9 12 20 14 11 14 18 12 8 10 2 6 2 7 6 6 11 2 6 5 5 4 7
40 39 40 41 42 43 45 47 48 46 43 41 35 31 28 18 6 9 14 9 3 8 5 3 4 11 18 16 14 13 21 21 18 11 18 9 15 9 8 8 5 10 3 7 8 7 8
45 45 43 41 43 45 46 48 48 48 45 43 34 28 24 16 16 18 14 4 9 4 9 4 2 6 20 16 17 11 14 22 4 6 5 11 16 16 15 17 9 10 7 9 14 12 13
46 47 46 44 42 43 47 49 50 49 45 44 31 23 14 14 24 24 16 10 8 7 6 10 1 8 11 10 8 17 16 13 20 20 15 11 9 4 8 5 7 10 10 2 7 3 6
48 49 47 45 42 42 44 49 51 51 44 44 30 13 8 14 26 30 5 9 7 7 8 4 2 3 15 17 18 16 17 9 19 27 30 13 12 8 4 9 9 8 18 7 3 14 18
46 49 49 48 45 44 43 47 51 51 43 32 21 2 7 17 34 17 9 10 10 12 9 5 4 6 3 7 16 13 11 8 9 14 16 19 15 8 7 10 15 8 8 5 2 5 12
47 49 50 48 47 45 44 46 48 50 44 28 6 3 12 31 7 1 6 9 4 5 5 4 4 7 6 2 8 12 16 9 3 21 20 15 10 24 35 9 3 7 9 9 15 13 2
47 49 51 49 46 46 45 45 45 45 47 36 15 3 19 7 5 5 3 5 6 4 4 2 6 8 2 4 6 10 11 8 9 17 18 20 10 12 10 9 7 13 13 13 7 5 15
48 47 50 51 48 45 44 44 43 41 40 27 8 2 3 7 3 3 5 3 4 6 8 9 7 3 4 6 5 1 9 5 5 4 6 21 8 9 17 2 1 7 18 18 17 12 14
49 47 48 49 48 46 45 43 41 39 34 18 11 3 2 4 5 4 3 2 3 5 8 7 5 18 11 6 6 8 5 2 4 5 7 5 6 6 7 7 7 6 11 16 20 19 18
49 48 48 48 47 46 45 43 40 36 31 11 7 6 8 4 4 4 5 9 9 5 6 8 16 3 12 10 12 14 14 7 7 7 5 2 5 4 6 1 2 11 18 21 24 13 19
46 46 47 46 45 44 44 41 40 37 34 12 12 8 4 2 1 4 5 5 6 2 10 23 13 13 17 22 27 32 13 9 3 9 8 4 10 5 15 4 9 20 21 19 10 10 14
43 44 44 44 44 42 41 40 38 37 35 28 14 9 5 3 5 5 3 5 8 8 8 15 14 10 2 5 9 15 11 9 10 8 4 10 8 3 10 3 23 6 12 16 19 8 15
42 42 43 41 42 41 40 38 36 33 29 26 14 8 6 6 7 14 11 10 18 12 10 11 10 11 22 7 3 6 4 3 1 14 7 7 8 6 9 18 17 16 8 13 18 18 15
43 41 41 40 41 41 40 38 34 32 29 24 13 7 5 6 5 10 8 5 5 5 6 8 7 12 0 2 3 7 9 8 11 11 9 8 8 8 7 15 27 20 19 13 4 20 29
43 42 41 40 39 39 38 37 35 32 29 26 12 8 7 8 13 8 10 5 3 3 6 7 14 7 9 3 4 6 7 1 9 8 7 6 3 17 21 19 17 8 17 15 19 12 42
42 42 42 41 41 40 37 36 36 35 33 26 18 14 11 11 34 38 36 20 9 6 5 9 5 2 1 5 7 7 8 9 7 4 8 14 9 10 5 12 26 7 16 18 4 30 35
43 43 42 40 41 40 39 36 36 36 35 30 17 16 20 26 28 44 55 56 46 26 5 6 5 5 2 2 2 4 5 6 6 10 3 9 9 4 11 3 8 12 14 12 18 29 23
Wind_Direction_500mb
33 30 26 21 14 8 0 358 352 346 339 330 325 322 318 316 313 309 306 302 301 304 305 308 314 319 329 319 283 291 197 183 176 158 121 65 68 63 322 294 278 223 318 252 258 247 260
29 25 20 17 13 11 7 358 352 344 334 331 327 323 319 314 310 305 301 298 297 298 298 302 305 310 317 281 317 170 181 181 172 173 180 43 19 3 285 294 308 323 304 293 290 184 197
19 15 14 12 9 6 1 355 350 344 336 331 328 325 321 315 310 305 301 295 295 293 291 293 295 302 296 275 202 167 167 171 174 172 85 31 359 351 328 310 333 308 325 340 25 323 203
14 9 3 2 360 357 353 349 343 340 336 335 331 328 323 317 310 307 299 293 292 288 284 283 283 296 269 255 189 166 165 176 184 205 249 325 26 332 308 298 344 337 6 8 17 288 298
9 4 360 358 355 352 348 344 339 336 334 331 327 325 322 318 314 310 299 294 292 284 276 268 271 268 269 243 211 192 179 186 215 241 238 274 320 4 319 359 53 27 333 343 340 294 240
4 360 356 352 350 347 344 339 336 333 330 326 323 321 321 318 316 311 299 295 294 276 256 257 252 276 230 179 179 199 205 199 119 116 186 174 111 259 64 5 29 320 345 325 298 239 230
358 355 352 349 346 344 340 338 334 330 326 323 321 319 319 317 316 314 302 292 278 275 230 218 216 204 142 146 177 198 199 199 213 298 216 89 110 244 266 240 282 293 265 286 296 285 250
351 348 347 345 344 342 340 339 335 330 327 322 319 318 317 315 318 318 307 161 67 301 299 249 243 248 245 244 300 204 175 161 184 201 168 168 237 238 219 268 282 23 13 10 285 51 267
343 341 339 339 338 338 338 338 336 333 328 322 319 318 317 314 317 294 175 169 334 324 264 273 234 236 233 231 220 211 179 173 175 177 196 221 146 160 276 332 41 106 20 5 324 336 112
342 338 335 334 333 332 332 335 334 332 328 323 319 318 318 315 307 304 173 328 329 204 288 241 216 226 198 191 227 220 198 173 170 200 189 236 178 178 139 323 10 87 242 321 339 5 342
342 339 336 333 332 331 330 330 331 329 326 322 319 316 316 309 291 280 175 323 23 78 282 132 172 194 179 181 150 186 189 194 185 176 188 181 155 160 307 156 85 312 348 358 358 148 292
343 339 336 335 334 332 331 329 328 327 325 320 318 313 308 301 273 237 209 284 139 232 249 116 141 168 162 195 158 130 173 198 174 159 238 243 326 242 208 217 279 323 186 82 104 192 268
347 341 335 335 335 333 333 332 329 327 327 319 316 307 295 281 229 181 183 160 192 223 342 114 178 172 188 175 165 162 175 184 190 184 219 195 226 243 215 229 166 204 219 282 261 269 298
348 343 338 335 336 335 336 335 332 329 330 319 319 304 284 259 221 208 181 148 222 244 259 338 34 136 195 163 195 148 147 193 189 157 140 222 232 191 166 220 257 174 229 250 274 269 304
350 347 341 337 338 336 337 336 336 334 334 321 324 305 272 221 201 181 173 203 235 220 323 321 259 178 189 184 191 186 201 208 204 187 211 184 250 287 229 173 195 144 203 52 120 74 253
352 351 348 342 340 340 341 338 338 338 339 329 330 308 228 198 181 173 165 230 246 232 319 288 295 250 186 178 181 188 178 190 200 190 210 194 257 206 174 171 66 251 141 185 193 243 259
351 352 352 350 345 342 344 343 342 341 342 336 330 302 323 170 159 165 206 227 252 258 241 326 332 311 285 186 205 181 201 194 199 179 197 181 225 193 200 202 223 145 182 75 163 278 254
351 352 352 352 349 346 346 345 347 344 348 344 349 179 151 147 141 348 185 200 239 274 235 268 251 261 254 207 168 189 203 232 141 153 166 189 218 245 252 272 280 230 239 215 239 202 230
350 352 353 353 351 348 348 348 351 349 351 352 346 38 176 104 193 194 228 242 243 257 268 272 267 235 124 297 234 191 198 150 159 165 165 170 210 235 224 166 152 214 195 183 148 176 186
352 350 352 353 352 350 350 352 353 352 353 351 357 176 112 204 84 170 161 200 251 234 256 240 274 250 223 255 211 284 208 155 55 132 138 155 153 228 247 19 15 221 188 176 206 209 196
355 353 353 353 352 352 352 354 357 356 358 1 12 46 351 173 190 250 247 195 246 261 234 232 220 230 203 232 198 214 215 211 90 112 73 227 220 205 268 238 238 260 221 194 210 233 228
353 354 355 355 354 353 354 355 359 3 2 21 34 4 340 280 291 229 197 205 203 256 235 244 231 248 211 234 223 209 187 219 189 139 143 149 177 190 263 319 326 276 260 249 235 229 245
350 353 354 356 356 355 355 357 359 6 14 25 6 344 346 295 209 195 230 206 195 13 248 250 290 304 264 257 264 252 255 294 310 182 146 146 144 167 263 357 314 266 263 237 223 217 223
348 350 352 356 357 357 357 358 360 5 11 12 6 349 343 282 259 224 305 356 261 265 271 292 296 196 224 332 106 120 92 83 129 79 50 138 128 170 266 232 255 317 324 247 248 233 222
350 350 350 352 357 357 356 358 359 360 2 1 355 8 2 296 303 284 265 255 286 272 242 250 278 313 307 185 177 124 90 106 209 35 353 0 158 175 237 250 292 265 205 190 203 226 194
350 351 350 351 351 353 356 355 356 354 356 354 342 331 337 313 238 294 307 291 286 296 266 248 288 334 232 129 152 169 181 172 175 155 60 129 66 247 169 251 264 286 225 203 169 249 184
346 346 349 350 350 348 349 351 352 350 350 348 339 306 304 272 276 235 236 274 247 272 274 303 338 336 17 131 162 186 201 241 202 203 167 166 197 237 257 257 263 215 150 142 204 257 162
340 341 343 345 347 346 344 344 344 343 341 341 322 288 262 260 271 261 256 244 249 260 281 348 272 103 305 166 195 169 205 182 188 189 200 230 221 234 212 244 254 158 133 204 96 132 142
333 335 337 339 342 343 340 338 337 336 336 333 332 301 276 261 266 278 275 267 252 234 287 315 320 286 349 71 211 139 172 176 186 233 139 209 234 224 224 264 346 287 287 150 140 139 150
Wind_Speed_850mb
22 21 21 21 21 20 19 19 20 20 20 20 21 22 23 23 23 23 23 24 23 22 21 20 19 19 20 11 5 3 16 18 19 18 15 14 11 2 3 5 6 7 6 8 13 14 15
22 22 23 24 24 24 22 21 23 22 22 23 23 24 24 25 24 24 24 24 24 22 21 20 19 19 17 9 5 5 14 17 24 19 3 8 6 8 2 6 6 16 22 27 12 6 11
23 23 23 24 24 25 23 25 26 25 25 25 26 26 26 27 26 25 25 26 24 23 21 19 19 19 20 16 1 10 17 22 21 15 6 7 12 7 10 8 12 14 14 10 3 7 10
23 24 24 25 25 26 25 26 27 28 28 29 29 30 30 29 28 26 25 25 24 23 21 18 17 17 13 7 10 11 21 24 20 12 5 9 6 7 5 14 2 5 3 11 8 1 3
25 25 25 26 27 28 28 29 29 30 31 31 31 31 31 32 30 25 25 24 23 22 19 16 15 11 12 7 14 20 20 17 12 11 6 8 14 3 4 7 4 10 7 13 8 6 4
26 27 27 28 28 29 30 31 32 33 33 33 33 32 32 33 30 25 22 21 17 15 16 15 19 9 14 5 8 18 27 23 9 8 6 4 2 1 3 7 7 10 7 10 15 1 5
27 27 28 29 30 30 31 32 34 34 35 35 35 34 32 32 29 25 17 14 11 9 17 15 6 7 10 10 6 12 24 32 14 4 5 4 1 5 7 8 10 10 8 13 10 9 7
29 30 30 31 32 33 34 35 36 35 36 36 35 34 31 31 27 20 7 3 5 5 15 26 43 43 33 21 4 13 20 20 17 12 8 5 11 9 6 7 8 2 3 8 11 11 3
30 31 33 33 34 35 36 38 38 38 37 37 36 34 30 28 24 5 3 6 9 13 7 14 30 32 39 26 15 17 33 21 10 14 15 10 3 14 4 5 5 3 12 16 5 10 5
32 33 34 36 37 38 39 40 41 40 38 37 37 34 29 22 14 7 9 3 13 3 6 7 11 12 27 21 12 33 35 20 9 17 14 11 3 5 4 6 3 6 2 16 14 9 8
34 35 35 37 39 41 42 43 43 41 40 37 37 35 27 19 16 6 12 5 3 3 7 8 7 6 23 29 16 22 44 18 20 16 11 5 8 9 7 2 2 4 7 7 4 3 4
37 38 39 39 40 42 45 45 45 43 40 40 36 35 27 19 13 11 13 3 8 3 11 2 9 12 20 14 11 14 18 12 8 10 2 6 2 7 6 6 11 2 6 5 5 4 7
40 39 40 41 42 43 45 47 48 46 43 41 35 31 28 18 6 9 14 9 3 8 5 3 4 11 18 16 14 13 21 21 18 11 18 9 15 9 8 8 5 10 3 7 8 7 8
45 45 43 41 43 45 46 48 48 48 45 43 34 28 24 16 16 18 14 4 9 4 9 4 2 6 20 16 17 11 14 22 4 6 5 11 16 16 15 17 9 10 7 9 14 12 13
46 47 46 44 42 43 47 49 50 49 45 44 31 23 14 14 24 24 16 10 8 7 6 10 1 8 11 10 8 17 16 13 20 20 15 11 9 4 8 5 7 10 10 2 7 3 6
48 49 47 45 42 42 44 49 51 51 44 44 30 13 8 14 26 30 5 9 7 7 8 4 2 3 15 17 18 16 17 9 19 27 30 13 12 8 4 9 9 8 18 7 3 14 18
46 49 49 48 45 44 43 47 51 51 43 32 21 2 7 17 34 17 9 10 10 12 9 5 4 6 3 7 16 13 11 8 9 14 16 19 15 8 7 10 15 8 8 5 2 5 12
47 49 50 48 47 45 44 46 48 50 44 28 6 3 12 31 7 1 6 9 4 5 5 4 4 7 6 2 8 12 16 9 3 21 20 15 10 24 35 9 3 7 9 9 15 13 2
47 49 51 49 46 46 45 45 45 45 47 36 15 3 19 7 5 5 3 5 6 4 4 2 6 8 2 4 6 10 11 8 9 17 18 20 10 12 10 9 7 13 13 13 7 5 15
48 47 50 51 48 45 44 44 43 41 40 27 8 2 3 7 3 3 5 3 4 6 8 9 7 3 4 6 5 1 9 5 5 4 6 21 8 9 17 2 1 7 18 18 17 12 14
49 47 48 49 48 46 45 43 41 39 34 18 11 3 2 4 5 4 3 2 3 5 8 7 5 18 11 6 6 8 5 2 4 5 7 5 6 6 7 7 7 6 11 16 20 19 18
49 48 48 48 47 46 45 43 40 36 31 11 7 6 8 4 4 4 5 9 9 5 6 8 16 3 12 10 12 14 14 7 7 7 5 2 5 4 6 1 2 11 18 21 24 13 19
46 46 47 46 45 44 44 41 40 37 34 12 12 8 4 2 1 4 5 5 6 2 10 23 13 13 17 22 27 32 13 9 3 9 8 4 10 5 15 4 9 20 21 19 10 10 14
43 44 44 44 44 42 41 40 38 37 35 28 14 9 5 3 5 5 3 5 8 8 8 15 14 10 2 5 9 15 11 9 10 8 4 10 8 3 10 3 23 6 12 16 19 8 15
42 42 43 41 42 41 40 38 36 33 29 26 14 8 6 6 7 14 11 10 18 12 10 11 10 11 22 7 3 6 4 3 1 14 7 7 8 6 9 18 17 16 8 13 18 18 15
43 41 41 40 41 41 40 38 34 32 29 24 13 7 5 6 5 10 8 5 5 5 6 8 7 12 0 2 3 7 9 8 11 11 9 8 8 8 7 15 27 20 19 13 4 20 29
43 42 41 40 39 39 38 37 35 32 29 26 12 8 7 8 13 8 10 5 3 3 6 7 14 7 9 3 4 6 7 1 9 8 7 6 3 17 21 19 17 8 17 15 19 12 42
42 42 42 41 41 40 37 36 36 35 33 26 18 14 11 11 34 38 36 20 9 6 5 9 5 2 1 5 7 7 8 9 7 4 8 14 9 10 5 12 26 7 16 18 4 30 35
43 43 42 40 41 40 39 36 36 36 35 30 17 16 20 26 28 44 55 56 46 26 5 6 5 5 2 2 2 4 5 6 6 10 3 9 9 4 11 3 8 12 14 12 18 29 23
Wind_Direction_850mb
33 30 26 21 14 8 0 358 352 346 339 330 325 322 318 316 313 309 306 302 301 304 305 308 314 319 329 319 283 291 197 183 176 158 121 65 68 63 322 294 278 223 318 252 258 247 260
29 25 20 17 13 11 7 358 352 344 334 331 327 323 319 314 310 305 301 298 297 298 298 302 305 310 317 281 317 170 181 181 172 173 180 43 19 3 285 294 308 323 304 293 290 184 197
19 15 14 12 9 6 1 355 350 344 336 331 328 325 321 315 310 305 301 295 295 293 291 293 295 302 296 275 202 167 167 171 174 172 85 31 359 351 328 310 333 308 325 340 25 323 203
14 9 3 2 360 357 353 349 343 340 336 335 331 328 323 317 310 307 299 293 292 288 284 283 283 296 269 255 189 166 165 176 184 205 249 325 26 332 308 298 344 337 6 8 17 288 298
9 4 360 358 355 352 348 344 339 336 334 331 327 325 322 318 314 310 299 294 292 284 276 268 271 268 269 243 211 192 179 186 215 241 238 274 320 4 319 359 53 27 333 343 340 294 240
4 360 356 352 350 347 344 339 336 333 330 326 323 321 321 318 316 311 299 295 294 276 256 257 252 276 230 179 179 199 205 199 119 116 186 174 111 259 64 5 29 320 345 325 298 239 230
358 355 352 349 346 344 340 338 334 330 326 323 321 319 319 317 316 314 302 292 278 275 230 218 216 204 142 146 177 198 199 199 213 298 216 89 110 244 266 240 282 293 265 286 296 285 250
351 348 347 345 344 342 340 339 335 330 327 322 319 318 317 315 318 318 307 161 67 301 299 249 243 248 245 244 300 204 175 161 184 201 168 168 237 238 219 268 282 23 13 10 285 51 267
343 341 339 339 338 338 338 338 336 333 328 322 319 318 317 314 317 294 175 169 334 324 264 273 234 236 233 231 220 211 179 173 175 177 196 221 146 160 276 332 41 106 20 5 324 336 112
342 338 335 334 333 332 332 335 334 332 328 323 319 318 318 315 307 304 173 328 329 204 288 241 216 226 198 191 227 220 198 173 170 200 189 236 178 178 139 323 10 87 242 321 339 5 342
342 339 336 333 332 331 330 330 331 329 326 322 319 316 316 309 291 280 175 323 23 78 282 132 172 194 179 181 150 186 189 194 185 176 188 181 155 160 307 156 85 312 348 358 358 148 292
343 339 336 335 334 332 331 329 328 327 325 320 318 313 308 301 273 237 209 284 139 232 249 116 141 168 162 195 158 130 173 198 174 159 238 243 326 242 208 217 279 323 186 82 104 192 268
347 341 335 335 335 333 333 332 329 327 327 319 316 307 295 281 229 181 183 160 192 223 342 114 178 172 188 175 165 162 175 184 190 184 219 195 226 243 215 229 166 204 219 282 261 269 298
348 343 338 335 336 335 336 335 332 329 330 319 319 304 284 259 221 208 181 148 222 244 259 338 34 136 195 163 195 148 147 193 189 157 140 222 232 191 166 220 257 174 229 250 274 269 304
350 347 341 337 338 336 337 336 336 334 334 321 324 305 272 221 201 181 173 203 235 220 323 321 259 178 189 184 191 186 201 208 204 187 211 184 250 287 229 173 195 144 203 52 120 74 253
352 351 348 342 340 340 341 338 338 338 339 329 330 308 228 198 181 173 165 230 246 232 319 288 295 250 186 178 181 188 178 190 200 190 210 194 257 206 174 171 66 251 141 185 193 243 259
351 352 352 350 345 342 344 343 342 341 342 336 330 302 323 170 159 165 206 227 252 258 241 326 332 311 285 186 205 181 201 194 199 179 197 181 225 193 200 202 223 145 182 75 163 278 254
351 352 352 352 349 346 346 345 347 344 348 344 349 179 151 147 141 348 185 200 239 274 235 268 251 261 254 207 168 189 203 232 141 153 166 189 218 245 252 272 280 230 239 215 239 202 230
350 352 353 353 351 348 348 348 351 349 351 352 346 38 176 104 193 194 228 242 243 257 268 272 267 235 124 297 234 191 198 150 159 165 165 170 210 235 224 166 152 214 195 183 148 176 186
352 350 352 353 352 350 350 352 353 352 353 351 357 176 112 204 84 170 161 200 251 234 256 240 274 250 223 255 211 284 208 155 55 132 138 155 153 228 247 19 15 221 188 176 206 209 196
355 353 353 353 352 352 352 354 357 356 358 1 12 46 351 173 190 250 247 195 246 261 234 232 220 230 203 232 198 214 215 211 90 112 73 227 220 205 268 238 238 260 221 194 210 233 228
353 354 355 355 354 353 354 355 359 3 2 21 34 4 340 280 291 229 197 205 203 256 235 244 231 248 211 234 223 209 187 219 189 139 143 149 177 190 263 319 326 276 260 249 235 229 245
350 353 354 356 356 355 355 357 359 6 14 25 6 344 346 295 209 195 230 206 195 13 248 250 290 304 264 257 264 252 255 294 310 182 146 146 144 167 263 357 314 266 263 237 223 217 223
348 350 352 356 357 357 357 358 360 5 11 12 6 349 343 282 259 224 305 356 261 265 271 292 296 196 224 332 106 120 92 83 129 79 50 138 128 170 266 232 255 317 324 247 248 233 222
350 350 350 352 357 357 356 358 359 360 2 1 355 8 2 296 303 284 265 255 286 272 242 250 278 313 307 185 177 124 90 106 209 35 353 0 158 175 237 250 292 265 205 190 203 226 194
350 351 350 351 351 353 356 355 356 354 356 354 342 331 337 313 238 294 307 291 286 296 266 248 288 334 232 129 152 169 181 172 175 155 60 129 66 247 169 251 264 286 225 203 169 249 184
346 346 349 350 350 348 349 351 352 350 350 348 339 306 304 272 276 235 236 274 247 272 274 303 338 336 17 131 162 186 201 241 202 203 167 166 197 237 257 257 263 215 150 142 204 257 162
340 341 343 345 347 346 344 344 344 343 341 341 322 288 262 260 271 261 256 244 249 260 281 348 272 103 305 166 195 169 205 182 188 189 200 230 221 234 212 244 254 158 133 204 96 132 142
333 335 337 339 342 343 340 338 337 336 336 333 332 301 276 261 266 278 275 267 252 234 287 315 320 286 349 71 211 139 172 176 186 233 139 209 234 224 224 264 346 287 287 150 140 139 150